sat.trackr.live / text

‹ back to catalog

STARLINK-31073

NORAD 58773 · 2024-011J

PAYLOAD ACTIVE UNKNOWN

§ Identity

Operator
Country
US
Launch date
2024-01-14
Launch site
AFWTR
Launch vehicle
Mass (kg)
RCS (m²)

Purposes: comms

External: N2YO · Heavens-Above · Gunter

§ Orbital elements

Epoch: 2026-09-20T04:41:32.443296Z

Period
93.85 min
Inclination
53.1585°
Eccentricity
0.0000708
Mean motion
15.34406505 rev/d
Perigee alt
462.2 km
Apogee alt
463.2 km
Semi-major
6,840.8 km
B*
-4.5104e-5
RAAN
189.2479°
Arg perigee
74.8304°
Mean anomaly
285.2777°
Rev number
15,006

§ Raw data

STARLINK-310731 58773U 24011J   26263.19551439 -.00001900  00000+0 -45104-4 0  99932 58773  53.1585 189.2479 0000708  74.8304 285.2777 15.34406505150063

JSON: /api/v1/satellites/58773 · /tle

For live sub-satellite position, see the globe view (requires WebGL).

§ Visibility from observer

Set your observer location to see the next 7 days of passes ≥ 10°. The values pass through the URL so the page stays shareable.

No JS? Fill the form by hand. The geolocation button needs JavaScript.